Location: Seasalter
(51.3333°N, 1.0167°E)
Time: 23:20:11
(UTC+00:00)

ATLAS 5 CENTAUR R/B - Visible Passes

Search period start: 23 April 2024 00:00
Search period end: 03 May 2024 00:00
Orbit: 423 x 1174 km, 63.3° (Epoch: 23 April)

Date Brightness Start Highest point End Pass type
(mag) Time Alt. Az. Time Alt. Az. Time Alt. Az.
23 Apr 3.5 00:05:58 10° NW 00:09:57 31° NNE 00:14:44 10° E visible
23 Apr 1.9 01:49:29 10° NW 01:54:16 79° SW 02:00:15 10° SE visible
23 Apr 3.4 03:34:21 10° WNW 03:37:53 18° WSW 03:41:50 10° SSW visible
23 Apr 3.6 20:07:44 10° W 20:10:45 25° NNW 20:14:12 10° NNE visible
23 Apr 4.3 21:53:23 10° NW 21:56:03 17° N 21:59:01 10° NE visible
23 Apr 3.7 23:37:28 10° NNW 23:41:17 28° NNE 23:45:49 10° E visible
24 Apr 1.9 01:20:57 10° NW 01:25:42 87° NE 01:31:39 10° SE visible
24 Apr 3.2 03:05:27 10° WNW 03:09:24 22° WSW 03:13:55 10° SSW visible
24 Apr 3.3 19:38:56 10° W 19:42:03 28° NNW 19:45:37 10° NNE visible
24 Apr 4.2 21:24:38 10° NW 21:27:16 17° N 21:30:11 10° NE visible
24 Apr 3.8 23:08:54 10° NNW 23:12:33 25° NNE 23:16:50 10° E visible
25 Apr 2.1 00:52:23 10° NW 00:57:05 75° NE 01:01:21 18° SE visible
25 Apr 3.0 02:36:37 10° WNW 02:40:51 27° WSW 02:42:04 25° SW visible
25 Apr 4.2 20:55:50 10° NW 20:58:26 17° N 21:01:20 10° NE visible
25 Apr 3.9 22:40:18 10° NNW 22:43:46 23° NNE 22:47:48 10° ENE visible
26 Apr 2.3 00:23:47 10° NW 00:28:24 63° NE 00:31:44 24° ESE visible
26 Apr 2.8 02:07:48 10° WNW 02:12:16 32° WSW 02:12:31 32° SW visible
26 Apr 4.1 20:26:56 10° NW 20:29:34 17° N 20:32:29 10° NE visible
26 Apr 3.9 22:11:38 10° NNW 22:14:56 21° NNE 22:18:44 10° ENE visible
26 Apr 2.5 23:55:09 10° NW 23:59:40 54° NE 00:02:46 24° ESE visible
27 Apr 2.6 01:39:01 10° WNW 01:43:34 38° WSW 01:43:34 38° WSW visible
27 Apr 4.0 19:57:59 10° NW 20:00:39 18° N 20:03:38 10° NNE visible
27 Apr 4.0 21:42:54 10° NNW 21:46:02 19° NNE 21:49:36 10° ENE visible
27 Apr 2.7 23:26:29 10° NW 23:30:53 46° NE 23:34:05 22° E visible
28 Apr 2.3 01:10:12 10° NW 01:14:54 46° SW 01:14:54 46° SW visible
28 Apr 4.0 21:14:07 10° NNW 21:17:05 18° NNE 21:20:27 10° ENE visible
28 Apr 3.0 22:57:46 10° NW 23:02:02 40° NE 23:05:33 18° E visible
29 Apr 2.1 00:41:24 10° NW 00:46:09 56° SW 00:46:22 55° SW visible
29 Apr 4.0 20:45:15 10° NW 20:48:05 17° N 20:51:17 10° NE visible
29 Apr 3.2 22:29:00 10° NW 22:33:08 35° NNE 22:37:05 15° E visible
30 Apr 1.9 00:12:33 10° NW 00:17:21 67° SW 00:17:55 62° SSW visible
30 Apr 4.1 01:57:53 10° W 01:58:44 12° W 01:58:44 12° W visible
30 Apr 4.0 20:16:19 10° NW 20:19:02 17° N 20:22:05 10° NE visible
30 Apr 3.3 22:00:13 10° NW 22:04:10 31° NNE 22:08:40 11° E visible
30 Apr 1.9 23:43:42 10° NW 23:48:28 80° SW 23:49:30 59° SSE visible
01 May 3.9 01:28:31 10° WNW 01:30:19 16° W 01:30:19 16° W visible
01 May 3.5 21:31:22 10° NNW 21:35:09 27° NNE 21:39:40 10° E visible
01 May 1.9 23:14:49 10° NW 23:19:33 87° NE 23:21:07 49° SE visible
02 May 3.6 00:59:17 10° WNW 01:01:56 20° W 01:01:56 20° W visible
02 May 3.6 21:02:27 10° NNW 21:06:04 25° NNE 21:10:19 10° ENE visible
02 May 2.0 22:45:54 10° NW 22:50:35 74° NE 22:52:44 37° ESE visible
